THORAD AGENA D DEB

Satellite information

Favourite Embed

Satellite Type and Status

DEBRISIN ORBIT

Key statistics

Satellite THORAD AGENA D DEB at a glance.

Uptime

20293

Days in orbit

Revolutions

≈ 13.6

Per day

Orbit

SSO

Sun Synchronous Orbit

Inclination

100.0

Latest

Satellite identification and parameters

Extended collection of information and parameters for THORAD AGENA D DEB.

Object identification

Identified? True

Debris? True

Object name: THORAD AGENA D DEB

International designator: 1970-025PQ

Object number (NORAD): 18785

Object ID (CCSDS): 18785

Country: UNITED STATES OF AMERICA (US)

Current information (Y/N): Y

RCS size: SMALL

Orbital parameters

Period: 105.796 minutes

Inclination: 100.0357 deg

SMA: 7409.774 km

Apoapsis: 1032.527 km

Periapsis: 1030.751 km

RAAN: 192.6041 deg

Eccentricy: 0.00011987

Argument of periapsis: 156.9903 deg

Mean anomaly: 354.8018 deg

Mean motion: 13.61116493 rev/day

Mean motion (dot): 0.00000351 rev/day2

B* drag term: 0.00052408342 1/REarth

Two-line elements (TLE)

Creation date: Oct. 27, 2025, 10:32 a.m.

Reference frame: TEME

Reference center: EARTH

Epoch: Oct. 27, 2025, 4:37 a.m. UTC

TLE line 0: 0 THORAD AGENA D DEB

TLE line 1: 1 18785U 70025PQ 25300.19299360 .00000351 00000-0 52408-3 0 9993

TLE line 2: 2 18785 100.0357 192.6041 0001199 156.9903 354.8018 13.61116493573080

Live tracking on map

Real-time ground track for satellite THORAD AGENA D DEB.

In-orbit conjunctions

A list of the most updated potential collisions computed for object THORAD AGENA D DEB.

Target Orbit TCA Probability of collision Miss distance Type
COSMOS 1275 DEB LEO 2024-10-13 22:50:40 0.0001419695 128.0 (m) DEBRIS

Associated space launch

Meteorological research and development satellite

THORAD AGENA D DEB was lifted into orbit during the mission ‘Thorad SLV-2G Agena D | Nimbus 4’, on board a Thorad SLV-2G Agena D space rocket.

The launch took place on April 8, 1970, 8:17 a.m. from Space Launch Complex 2E.

For more information about the launch, click the button.

Launch to space Thorad SLV-2G Agena D | Nimbus 4
Thorad SLV-2G Agena D | Nimbus 4

Agency: N/A

Status: Launch Successful

Launch date: April 8, 1970, 8:17 a.m. UTC

Rocket: Thorad SLV-2G Agena D

Launch pad: Space Launch Complex 2E

Location: Vandenberg SFB, CA, USA

...

Latest news about this satellite

There are no fresh news available about this satellite. Check back as we update our databases every day.


Newsletter sign-up

Weekly statistics, charts and insights to help you stay on top of the space industry.